Location: Palmerston North
(40.3500°S, 175.6170°E)
Time: 17:05:17
(UTC+12:00)

Cosmos 2227 - Pass Details

Date: 24 January 2019
Orbit: 832 x 863 km, 71.0° (Epoch: 20 April)

Event Time Altitude Azimuth Distance (km) Brightness Sun altitude
Rises 21:34:19 0° 204° (SSW) 3,443 8.5 -9.2°
Reaches altitude 10° 21:36:48 10° 203° (SSW) 2,497 7.7 -9.6°
Maximum altitude 21:42:33 90° 154° (SSE) 854 4.2 -10.4°
Drops below altitude 10° 21:48:11 10° 22° (NNE) 2,449 6.1 -11.3°
Enters shadow 21:48:12 10° 22° (NNE) 2,453 6.1 -11.3°
